星链-30792 (STARLINK-30792 )

导读

STARLINK-30792是美国太空探索技术公司(SpaceX)星链星座中的一颗卫星,于2023年11月3日发射,星链项目旨在构建全球卫星互联网星座,为全球不同地区提供高速卫星互联网接入服务,该卫星加入星座后,进一步扩充了星链系统的网络覆盖能力与服务容量。

Basic Information
目录编号:
58220
目录名称:
STARLINK-30792
国际标识:
2023-170Q
轨道中心:
EARTH
卫星名称:
星链-30792
卫星全名:
星链-30792 (STARLINK-30792 )
卫星状态:
在轨 (已飞行958 天)
发射日期:
2023-11-03 UTC
国别 :
美国 (US)
星等 :
--
Orbit Information
数据来源 国际轨道数据 AOE轨道数据
星历时间 2026-06-17T04:13:10+0800
1天前
查看轨道信息
2026-06-14T09:00:00+0800
4天前
查看轨道信息
半长轴 6920.552km 6920.934km
偏心率 0.0008076 0.0007436
轨道倾角 43.001° 42.998°
近地点辐角 246.444° 234.913°
升交点赤经 13.827° 29.171°
平近点角 113.556° 23.328°
近地点 536.825km 537.65km
远地点 548.005km 547.944km
周期 95.493分钟 95.501分钟
每日圈数 15.079664 15.078418
Detailed Information
固有亮度:
5
最大亮度:
0.3
卫星平台:
Starlink v2.0 mini
覆盖范围:
全球
运营商:
太空探索技术公司
运营商所在国:
美国
制造商(研发单位):
太空探索技术公司
制造商所在国:
美国
使用方式:
暂无
Satellite Introduction
星链(Starlink)计划是由太空探索技术公司(SpaceX)提出的一个巨型低轨卫星互联网星座项目,计划在2019年至2024年间在太空搭建由约1.2万颗卫星组成的“星链”网络,其中1584颗将部署在地球上空550千米处的近地轨道,并从2020年开始工作。该卫星仍在工作。
2D Orbit Map
3D Orbit Map
Orbit Altitude Analysis Chart
Orbit Inclination Analysis Chart
Orbit Comprehensive Analysis Chart
View Comprehensive Chart